Location: Unspecified
(44.0704°N, 88.6889°W)
Time: 02:29:14
(UTC+02:00)

deb Explorer IX - Visible Passes

Search period start: 16 June 2019 00:00
Search period end: 26 June 2019 00:00
Orbit: 537 x 1115 km, 38.8° (Epoch: 14 June)

Date Brightness Start Highest point End Pass type
(mag) Time Alt. Az. Time Alt. Az. Time Alt. Az.
16 Jun ? 04:16:33 10° W 04:22:34 39° SSW 04:27:46 10° SE visible
16 Jun ? 06:05:33 10° WSW 06:08:35 14° SW 06:09:18 14° SSW visible
17 Jun ? 05:43:33 10° WSW 05:46:47 15° SW 05:48:29 13° SSW visible
18 Jun ? 05:21:32 10° WSW 05:24:57 15° SW 05:27:41 11° S visible
19 Jun ? 04:59:32 10° WSW 05:03:06 15° SW 05:06:26 10° S visible
20 Jun ? 04:37:31 10° WSW 04:41:15 16° SW 04:44:43 10° S visible
21 Jun ? 04:15:29 10° WSW 04:19:22 16° SW 04:23:00 10° S visible
